Location: Boiro
(42.6475°N, 8.8834°W)
Time: 20:27:42
(UTC+02:00)

AO-73 - Pass Details

Date: 29 April 2024
Orbit: 560 x 625 km, 97.7° (Epoch: 20 May)

Event Time Altitude Azimuth Distance (km) Brightness Sun altitude
Rises 05:13:17 0° 20° (NNE) 2,924 ? -21.9°
Reaches altitude 10° 05:15:38 10° 29° (NNE) 2,013 ? -21.7°
Maximum altitude 05:19:43 37° 97° (E) 978 ? -21.1°
Enters shadow 05:22:15 20° 154° (SSE) 1,464 ? -20.8°
